| time (UTC) | temp F | wind direction | speed MPH | gust MPH | rain 1hr in | rain 24hr in | rain mn in | humidity % | barometer mb |
| 20260510054540 | 61 | 76 | 0.0 | 0.0 | 0.00 | 0.00 | 0.00 | 72 | 1012.1 |
| 20260510053039 | 61 | 224 | 0.0 | 2.0 | 0.00 | 0.00 | 0.00 | 72 | 1012.2 |
| 20260510051538 | 60 | 95 | 0.0 | 2.0 | 0.00 | 0.00 | 0.00 | 75 | 1011.8 |
| 20260510050043 | 60 | 240 | 0.0 | 0.0 | 0.00 | 0.00 | 0.00 | 71 | 1012.0 |
| 20260510044535 | 60 | 16 | 0.0 | 0.0 | 0.00 | 0.00 | 0.00 | 70 | 1012.0 |
| 20260510043035 | 60 | 8 | 0.0 | 0.0 | 0.00 | 0.00 | 0.00 | 71 | 1011.8 |
| 20260510041533 | 61 | 108 | 0.0 | 0.0 | 0.00 | 0.00 | 0.00 | 69 | 1011.9 |
| 20260510040033 | 61 | 102 | 0.0 | 4.0 | 0.00 | 0.00 | 0.00 | 67 | 1011.9 |
| 20260510034532 | 61 | 86 | 0.0 | 3.0 | 0.00 | 0.00 | 0.00 | 68 | 1011.9 |
| 20260510033034 | 61 | 63 | 3.0 | 7.0 | 0.00 | 0.00 | 0.00 | 70 | 1011.7 |
| 20260510031529 | 61 | 93 | 1.0 | 5.0 | 0.00 | 0.00 | 0.00 | 70 | 1011.8 |
| 20260510030027 | 61 | 14 | 1.0 | 3.0 | 0.00 | 0.00 | 0.00 | 67 | 1012.1 |
| 20260510024528 | 61 | 122 | 0.0 | 4.0 | 0.00 | 0.00 | 0.00 | 68 | 1012.3 |
| 20260510023027 | 62 | 77 | 0.0 | 5.0 | 0.00 | 0.00 | 0.00 | 68 | 1012.3 |
| 20260510021529 | 62 | 83 | 4.0 | 13.0 | 0.00 | 0.00 | 0.00 | 67 | 1012.2 |
| 20260510020023 | 62 | 89 | 4.0 | 8.0 | 0.00 | 0.00 | 0.00 | 67 | 1012.3 |
| 20260510014522 | 63 | 66 | 1.0 | 6.0 | 0.00 | 0.00 | 0.00 | 65 | 1012.2 |
| 20260510013021 | 64 | 52 | 3.0 | 7.0 | 0.00 | 0.00 | 0.00 | 59 | 1012.5 |
| 20260510011521 | 63 | 59 | 1.0 | 3.0 | 0.00 | 0.00 | 0.00 | 62 | 1012.7 |
| 20260510010020 | 63 | 31 | 2.0 | 4.0 | 0.00 | 0.00 | 0.00 | 65 | 1012.6 |
| 20260510004519 | 62 | 119 | 0.0 | 4.0 | 0.00 | 0.00 | 0.00 | 66 | 1012.5 |
| 20260510003019 | 63 | 79 | 1.0 | 4.0 | 0.00 | 0.00 | 0.00 | 64 | 1012.5 |
| 20260510001517 | 64 | 343 | 6.0 | 12.0 | 0.00 | 0.00 | 0.00 | 59 | 1012.6 |
| 20260510000016 | 62 | 42 | 3.0 | 8.0 | 0.00 | 0.00 | 0.00 | 66 | 1012.7 |
| 20260509234529 | 62 | 82 | 1.0 | 7.0 | 0.00 | 0.00 | 0.00 | 66 | 1013.2 |
| 20260509233013 | 62 | 47 | 2.0 | 9.0 | 0.00 | 0.00 | 0.00 | 68 | 1013.4 |
| 20260509231516 | 66 | 79 | 1.0 | 5.0 | 0.00 | 0.00 | 0.00 | 52 | 1013.1 |
| 20260509230009 | 64 | 331 | 4.0 | 8.0 | 0.00 | 0.00 | 0.00 | 57 | 1013.0 |
| 20260509224519 | 63 | 101 | 1.0 | 6.0 | 0.00 | 0.00 | 0.00 | 65 | 1012.9 |
| 20260509223006 | 65 | 99 | 2.0 | 9.0 | 0.00 | 0.00 | 0.00 | 57 | 1012.8 |
| 20260509221504 | 64 | 149 | 0.0 | 2.0 | 0.00 | 0.00 | 0.00 | 58 | 1013.5 |
| 20260509220100 | 64 | 16 | 7.0 | 12.0 | 0.00 | 0.00 | 0.00 | 59 | 1013.4 |
| 20260509214559 | 62 | 335 | 1.0 | 4.0 | 0.00 | 0.00 | 0.00 | 66 | 1013.9 |
| 20260509213059 | 62 | 240 | 0.0 | 1.0 | 0.00 | 0.00 | 0.00 | 66 | 1014.5 |
| 20260509211558 | 63 | 291 | 0.0 | 5.0 | 0.00 | 0.00 | 0.00 | 65 | 1014.1 |
| 20260509204606 | 63 | 33 | 2.0 | 7.0 | 0.00 | 0.00 | 0.00 | 63 | 1014.3 |
| 20260509203108 | 64 | 45 | 3.0 | 9.0 | 0.00 | 0.00 | 0.00 | 62 | 1014.0 |
| 20260509201556 | 63 | 16 | 5.0 | 10.0 | 0.00 | 0.00 | 0.00 | 64 | 1014.3 |
| 20260509200054 | 63 | 24 | 0.0 | 0.0 | 0.00 | 0.00 | 0.00 | 65 | 1014.6 |
| 20260509194554 | 63 | 162 | 0.0 | 6.0 | 0.00 | 0.00 | 0.00 | 66 | 1014.7 |
| 20260509193055 | 63 | 14 | 0.0 | 2.0 | 0.00 | 0.00 | 0.00 | 66 | 1014.4 |
| 20260509191553 | 63 | 69 | 1.0 | 4.0 | 0.00 | 0.00 | 0.00 | 66 | 1014.3 |
| 20260509190055 | 63 | 347 | 2.0 | 4.0 | 0.00 | 0.00 | 0.00 | 65 | 1014.2 |
| 20260509184551 | 63 | 8 | 1.0 | 4.0 | 0.00 | 0.00 | 0.00 | 63 | 1014.1 |
| 20260509183052 | 64 | 41 | 2.0 | 5.0 | 0.00 | 0.00 | 0.00 | 62 | 1013.9 |
| 20260509181606 | 64 | 44 | 0.0 | 0.0 | 0.00 | 0.00 | 0.00 | 63 | 1013.7 |
| 20260509180111 | 65 | 113 | 0.0 | 0.0 | 0.00 | 0.00 | 0.00 | 62 | 1013.8 |
| 20260509174548 | 65 | 77 | 0.0 | 0.0 | 0.00 | 0.00 | 0.00 | 60 | 1013.7 |
| 20260509173106 | 66 | 124 | 0.0 | 3.0 | 0.00 | 0.00 | 0.00 | 60 | 1013.9 |
| 20260509171552 | 66 | 101 | 2.0 | 8.0 | 0.00 | 0.00 | 0.00 | 60 | 1013.9 |
| 20260509170051 | 66 | 101 | 3.0 | 8.0 | 0.00 | 0.00 | 0.00 | 59 | 1014.1 |
| 20260509164544 | 67 | 124 | 3.0 | 10.0 | 0.00 | 0.00 | 0.00 | 58 | 1014.1 |
| 20260509163044 | 67 | 91 | 4.0 | 7.0 | 0.00 | 0.00 | 0.00 | 59 | 1014.3 |
| 20260509161552 | 67 | 109 | 5.0 | 7.0 | 0.00 | 0.00 | 0.00 | 59 | 1014.3 |
| 20260509160040 | 68 | 132 | 0.0 | 4.0 | 0.00 | 0.00 | 0.00 | 61 | 1014.4 |
| 20260509154539 | 68 | 184 | 0.0 | 4.0 | 0.00 | 0.00 | 0.00 | 61 | 1014.4 |
| 20260509153038 | 67 | 86 | 1.0 | 4.0 | 0.00 | 0.00 | 0.00 | 62 | 1014.6 |
| 20260509151539 | 67 | 359 | 1.0 | 7.0 | 0.00 | 0.00 | 0.00 | 63 | 1014.8 |
| 20260509150034 | 68 | 73 | 1.0 | 6.0 | 0.00 | 0.00 | 0.00 | 61 | 1015.0 |
| 20260509144533 | 68 | 102 | 2.0 | 5.0 | 0.00 | 0.00 | 0.00 | 62 | 1015.2 |
| 20260509143035 | 67 | 133 | 0.0 | 8.0 | 0.00 | 0.00 | 0.00 | 62 | 1015.5 |
| 20260509141540 | 67 | 77 | 3.0 | 7.0 | 0.00 | 0.00 | 0.00 | 61 | 1015.7 |
| 20260509140027 | 67 | 75 | 2.0 | 7.0 | 0.00 | 0.00 | 0.00 | 61 | 1016.0 |
| 20260509134532 | 67 | 54 | 2.0 | 7.0 | 0.00 | 0.00 | 0.00 | 66 | 1016.2 |
| 20260509133025 | 67 | 353 | 2.0 | 7.0 | 0.00 | 0.00 | 0.00 | 67 | 1016.3 |
| 20260509131528 | 68 | 65 | 1.0 | 11.0 | 0.00 | 0.00 | 0.00 | 68 | 1016.6 |
| 20260509130025 | 67 | 86 | 3.0 | 12.0 | 0.00 | 0.00 | 0.00 | 67 | 1016.7 |
| 20260509124521 | 68 | 134 | 4.0 | 12.0 | 0.00 | 0.00 | 0.00 | 67 | 1016.9 |
| 20260509123021 | 67 | 95 | 4.0 | 14.0 | 0.00 | 0.00 | 0.00 | 68 | 1017.0 |
| 20260509121522 | 67 | 63 | 5.0 | 13.0 | 0.00 | 0.00 | 0.00 | 67 | 1016.9 |
| 20260509120023 | 67 | 212 | 4.0 | 14.0 | 0.00 | 0.00 | 0.00 | 64 | 1017.0 |
| 20260509114517 | 68 | 113 | 2.0 | 11.0 | 0.00 | 0.00 | 0.00 | 66 | 1017.2 |
| 20260509113015 | 69 | 145 | 4.0 | 10.0 | 0.00 | 0.00 | 0.00 | 65 | 1017.4 |
| 20260509111515 | 68 | 141 | 0.0 | 12.0 | 0.00 | 0.00 | 0.00 | 66 | 1017.3 |
| 20260509110014 | 67 | 49 | 1.0 | 11.0 | 0.00 | 0.00 | 0.00 | 66 | 1017.4 |
| 20260509104513 | 67 | 90 | 4.0 | 10.0 | 0.00 | 0.00 | 0.00 | 65 | 1017.4 |
| 20260509103013 | 68 | 93 | 4.0 | 11.0 | 0.00 | 0.00 | 0.00 | 64 | 1017.6 |
| 20260509101521 | 68 | 148 | 4.0 | 10.0 | 0.00 | 0.00 | 0.00 | 64 | 1017.8 |
| 20260509100011 | 67 | 109 | 3.0 | 11.0 | 0.00 | 0.00 | 0.00 | 62 | 1017.8 |
| 20260509094510 | 68 | 149 | 5.0 | 11.0 | 0.00 | 0.00 | 0.00 | 62 | 1017.9 |
| 20260509093010 | 68 | 124 | 3.0 | 10.0 | 0.00 | 0.00 | 0.00 | 62 | 1017.9 |
| 20260509091509 | 68 | 143 | 6.0 | 13.0 | 0.00 | 0.00 | 0.00 | 60 | 1017.8 |
| 20260509090009 | 68 | 105 | 4.0 | 10.0 | 0.00 | 0.00 | 0.00 | 60 | 1017.6 |
| 20260509084506 | 67 | 43 | 3.0 | 10.0 | 0.00 | 0.00 | 0.00 | 62 | 1017.4 |
| 20260509083006 | 67 | 118 | 5.0 | 11.0 | 0.00 | 0.00 | 0.00 | 61 | 1017.3 |
| 20260509081512 | 67 | 141 | 2.0 | 7.0 | 0.00 | 0.00 | 0.00 | 63 | 1017.2 |
| 20260509080004 | 67 | 73 | 2.0 | 7.0 | 0.00 | 0.00 | 0.00 | 62 | 1017.2 |
| 20260509074502 | 67 | 115 | 1.0 | 6.0 | 0.00 | 0.00 | 0.00 | 64 | 1017.4 |
| 20260509073100 | 66 | 85 | 2.0 | 6.0 | 0.00 | 0.00 | 0.00 | 65 | 1017.4 |
| 20260509071600 | 65 | 155 | 2.0 | 5.0 | 0.00 | 0.00 | 0.00 | 67 | 1017.5 |
| 20260509064554 | 63 | 92 | 1.0 | 4.0 | 0.00 | 0.00 | 0.00 | 72 | 1017.6 |
| 20260509063109 | 64 | 101 | 2.0 | 4.0 | 0.00 | 0.00 | 0.00 | 70 | 1017.6 |
| 20260509061613 | 64 | 73 | 0.0 | 2.0 | 0.00 | 0.00 | 0.00 | 70 | 1017.6 |
| 20260509060057 | 63 | 43 | 0.0 | 4.0 | 0.00 | 0.00 | 0.00 | 69 | 1017.5 |